Weather History for Parsons, KS

Change the Weather History Date:

Friday, April 19, 2013

  Actual Average Record
Temperature  
Mean Temperature 46 °F -  
Max Temperature 62 °F 70 °F 88 °F (1987)
Min Temperature 32 °F 48 °F 32 °F (1953)
Degree Days  
Heating Degree Days 18    
Moisture  
Dew Point 28 °F    
Average Humidity 56    
Maximum Humidity 82    
Minimum Humidity 31    
Precipitation  
Precipitation 0.00 in - - ()
Sea Level Pressure  
Sea Level Pressure 30.08 in    
Wind  
Wind Speed 10 mph (WNW)    
Max Wind Speed 20 mph    
Max Gust Speed 26 mph    
Visibility 10 miles    
Events      
Averages and records for this station are not official NWS values.
T = Trace of Precipitation, MM = Missing Value Source: NWS Daily Summary

Daily Weather History Graph

Daily Weather History Graph

Search for Another Location

Airport:

Trip Planner

Search our weather history database for the weather conditions in past years. The results will help you decide how hot, cold, wet, or windy it might be!

Date:

Astronomy

Apr. 19, 2013 Rise Set
Actual Time 6:41 AM CDT 8:01 PM CDT
Civil Twilight 6:14 AM CDT 8:28 PM CDT
Nautical Twilight 5:41 AM CDT 9:00 PM CDT
Astronomical Twilight 5:08 AM CDT 9:35 PM CDT
Moon 1:54 PM CDT (4/19) 2:49 AM CDT (4/19)
Length of Visible Light 14h 13m
Length of Day
13h 19m
First Quarter, 62% of the Moon is Illuminated
Apr 19
First Quarter
Apr 25
Full
May 2
Last Quarter
May 9
New
May 17
First Quarter

Hourly Weather History & Observations

Time (CDT) Temp. Windchill Dew Point Humidity Pressure Visibility Wind Dir Wind Speed Gust Speed Precip Events Conditions
12:52 AM 37.9 °F 30.9 °F 27.0 °F 65% 30.05 in 10.0 mi West 10.4 mph - N/A   Overcast
1:52 AM 36.0 °F 28.5 °F 27.0 °F 70% 30.04 in 10.0 mi West 10.4 mph 17.3 mph N/A   Mostly Cloudy
2:52 AM 35.1 °F 28.6 °F 26.1 °F 70% 30.04 in 10.0 mi WNW 8.1 mph - N/A   Partly Cloudy
3:52 AM 34.0 °F 25.5 °F 26.1 °F 73% 30.04 in 10.0 mi West 11.5 mph - N/A   Overcast
4:52 AM 33.1 °F 26.1 °F 25.0 °F 72% 30.05 in 10.0 mi West 8.1 mph - N/A   Clear
5:52 AM 32.0 °F 26.4 °F 25.0 °F 75% 30.06 in 10.0 mi West 5.8 mph - N/A   Clear
6:52 AM 32.0 °F 25.6 °F 25.0 °F 75% 30.09 in 10.0 mi West 6.9 mph - N/A   Clear
7:52 AM 34.0 °F 26.6 °F 26.1 °F 73% 30.12 in 10.0 mi West 9.2 mph - N/A   Clear
8:52 AM 37.9 °F 30.0 °F 26.1 °F 62% 30.12 in 10.0 mi WNW 12.7 mph - N/A   Clear
9:52 AM 43.0 °F 35.7 °F 27.0 °F 53% 30.12 in 10.0 mi West 15.0 mph - N/A   Clear
10:52 AM 45.0 °F 38.5 °F 27.0 °F 49% 30.12 in 10.0 mi WNW 13.8 mph 20.7 mph N/A   Clear
11:52 AM 50.0 °F - 26.1 °F 39% 30.12 in 10.0 mi WNW 13.8 mph 24.2 mph N/A   Clear
12:52 PM 52.0 °F - 24.1 °F 34% 30.10 in 10.0 mi WNW 12.7 mph 25.3 mph N/A   Clear
1:52 PM 55.0 °F - 25.0 °F 31% 30.06 in 10.0 mi NW 13.8 mph 23.0 mph N/A   Clear
2:52 PM 57.9 °F - 28.0 °F 32% 30.06 in 10.0 mi WSW 12.7 mph 23.0 mph N/A   Scattered Clouds
3:52 PM 59.0 °F - 28.0 °F 31% 30.05 in 10.0 mi West 19.6 mph 26.5 mph N/A   Scattered Clouds
5:52 PM 61.0 °F - 30.9 °F 32% 30.03 in 10.0 mi WSW 6.9 mph - N/A   Mostly Cloudy
6:52 PM 60.1 °F - 30.0 °F 32% 30.03 in 10.0 mi NW 17.3 mph 26.5 mph N/A   Clear
7:52 PM 55.0 °F - 30.9 °F 40% 30.06 in 10.0 mi NNW 9.2 mph - N/A   Clear
8:52 PM 50.0 °F - 30.9 °F 48% 30.08 in 10.0 mi NNE 3.5 mph - N/A   Clear
9:52 PM 43.0 °F - 35.1 °F 74% 30.10 in 10.0 mi Calm Calm - N/A   Clear
10:52 PM 41.0 °F - 35.1 °F 79% 30.10 in 10.0 mi Calm Calm - N/A   Clear
11:52 PM 39.0 °F - 34.0 °F 82% 30.10 in 10.0 mi Calm Calm - N/A   Clear